This is the latest recevied weather packets stored in our database for station/object WD9GET. If no packets are shown the sender has not sent any weather packets the latest 10 day(s).
| Time | Temp. | Humidity | Pressure | Rain* | Wind** | Luminosity | Snow |
|---|---|---|---|---|---|---|---|
| 1777681933 | 15° C | 98% | 1010.6 hPa | 2.03 mm | - | 19 W/m² | - |
| 1777681861 | 15° C | 98% | 1010.7 hPa | 1.78 mm | - | 20 W/m² | - |
| 1777681797 | 15.56° C | 98% | 1010.8 hPa | 1.52 mm | - | 20 W/m² | - |
| 1777681737 | 15.56° C | 98% | 1010.8 hPa | 1.78 mm | - | 20 W/m² | - |
| 1777681677 | 15.56° C | 98% | 1010.9 hPa | 1.52 mm | - | 20 W/m² | - |
| 1777681617 | 15.56° C | 98% | 1010.8 hPa | 1.52 mm | - | 19 W/m² | - |
| 1777681552 | 15.56° C | 98% | 1010.7 hPa | 1.02 mm | - | 17 W/m² | - |
| 1777681491 | 15.56° C | 98% | 1010.7 hPa | 1.02 mm | - | 14 W/m² | - |
| 1777681429 | 15.56° C | 98% | 1010.5 hPa | 0.76 mm | - | 11 W/m² | - |
| 1777681366 | 15.56° C | 98% | 1010.5 hPa | 0.76 mm | - | 7 W/m² | - |
| 1777681306 | 15.56° C | 98% | 1010.5 hPa | 0.76 mm | - | 7 W/m² | - |
| 1777681232 | 15.56° C | 98% | 1010.5 hPa | 0.76 mm | - | 7 W/m² | - |
| 1777681143 | 15.56° C | 98% | 1010.5 hPa | 0.76 mm | - | 7 W/m² | - |
| 1777681083 | 15.56° C | 98% | 1010.4 hPa | 0.51 mm | - | 7 W/m² | - |
| 1777681023 | 15.56° C | 98% | 1010.4 hPa | 0.51 mm | - | 6 W/m² | - |
| 1777680967 | 15.56° C | 98% | 1010.1 hPa | 0.51 mm | - | 2 W/m² | - |
| 1777680897 | 15.56° C | 98% | 1010.1 hPa | 0.51 mm | - | 2 W/m² | - |
| 1777680826 | 15.56° C | 98% | 1010.1 hPa | 0.51 mm | - | 2 W/m² | - |
| 1777680759 | 15.56° C | 98% | 1010.1 hPa | 0.51 mm | - | 2 W/m² | - |
| 1777680696 | 15.56° C | 98% | 1009.9 hPa | 0.51 mm | - | 2 W/m² | - |
| 1777680633 | 15.56° C | 98% | 1009.8 hPa | 0.51 mm | - | 2 W/m² | - |
| 1777680573 | 15.56° C | 98% | 1009.4 hPa | 0.51 mm | - | 2 W/m² | - |
| 1777680513 | 15.56° C | 98% | 1009.4 hPa | 0.51 mm | - | 2 W/m² | - |
| 1777680453 | 15.56° C | 98% | 1009.2 hPa | 0.51 mm | - | 2 W/m² | - |
| 1777680393 | 15.56° C | 98% | 1008.9 hPa | 0.51 mm | - | 2 W/m² | - |
* Rain latest hour (hover to see other rain measurements)
** Current wind speed in m/s (hover to see current wind gust speed)